Hourly Data Report for September 07, 2018

SHEARWATER RCS
NOVA SCOTIA
Current Station Operator: ECCC - MSC

44°37'47.000" N
63°30'48.000" W
24.00 m
8205092
71264
AAW

Download Data

Hourly Data (September 2018)
Hourly Data Report for September 7, 2018
TIME Temp Definition
°C
Dew Point Definition
°C
Rel Hum Definition
%
Wind Dir Definition
10's deg

Wind Spd Definition
km/h
Visibility Definition
km
Stn Press Definition
kPa
Hmdx Definition


Wind Chill Definition


Weather Definition


00:00 19.9 17.7 87 2 9   101.51     LegendNANA
01:00 19.1 16.1 82 1 10   101.58     LegendNANA
02:00 16.8 11.3 70 36 14   101.65     LegendNANA
03:00 16.3 11.1 71 35 13   101.67     LegendNANA
04:00 15.0 11.4 79 33 8   101.72     LegendNANA
05:00 14.9 10.3 74 35 10   101.76     LegendNANA
06:00 14.3 10.1 76 35 11   101.81     LegendNANA
07:00 15.0 9.8 71 34 11   101.85     LegendNANA
08:00 17.2 10.8 66 35 12   101.84     LegendNANA
09:00 18.8 10.7 59 1 9   101.86     LegendNANA
10:00 19.5 10.9 58 4 10   101.86     LegendNANA
11:00 20.0 10.5 54 25 7   101.84     LegendNANA
12:00 21.0 11.8 56 22 9   101.81     LegendNANA
13:00 21.2 12.6 58 17 11   101.75     LegendNANA
14:00 20.8 11.3 55 16 17   101.68     LegendNANA
15:00 21.1 12.1 56 16 17   101.63     LegendNANA
16:00 20.7 11.6 56 19 15   101.58     LegendNANA
17:00 19.6 10.2 55 17 19   101.54     LegendNANA
18:00 18.9 11.6 63 19 9   101.53     LegendNANA
19:00 16.9 11.7 71 0 1   101.50     LegendNANA
20:00 17.0 12.8 76 32 6   101.53     LegendNANA
21:00 16.7 12.7 77 0 1   101.53     LegendNANA
22:00 17.2 13.3 78 25 2   101.49     LegendNANA
23:00 15.7 12.7 83 32 2   101.45     LegendNANA

Notes on Data Quality.

Legend

  • E = Estimated
  • M = Missing
  • NA = Not Available*
  • [empty] = Indicates an unobserved value
Date modified: